World > North America > United States > Arizona

Cave Creek, Arizona Regional Weather

Lat: 33.83N, Lon: 111.97W
Wx Zone: AZZ543
Warning FLW WEATHER ALERT - EXCESSIVE HEAT WARNING (More Info. Click Here) Warning
Feedback

Cave Creek, AZ Regional Weather

Expires:201908181900;;841077
ASUS45 KPSR 181810
RWRAZ 

ARIZONA HOURLY REGIONAL WEATHER ROUNDUP
NATIONAL WEATHER SERVICE PHOENIX AZ
1100 AM MST SUN AUG 18 2019

NOTE: FAIR INDICATES FEW OR NO CLOUDS BELOW 12,000 FEET WITH NO
SIGNIFICANT WEATHER AND/OR OBSTRUCTIONS TO VISIBILITY.


AZZ540-542>544-546-548-181900-
GREATER PHOENIX AREA
  
CITY           SKY/WX    TMP DP  RH WIND       PRES   REMARKS
PHOENIX        PTSUNNY   96  45  17 VRB5      29.88S                  
6HR MIN TEMP:  84; 6HR MAX TEMP:  96;                                

BUCKEYE        SUNNY     97  45  16 VRB6      29.89                   
GLENDALE       MOSUNNY   97  43  15 E5        29.90R                  
LUKE AFB       MOSUNNY   97  42  14 S8        29.87S                  
6HR MIN TEMP:  76; 6HR MAX TEMP:  98;                                

DEER VALLEY      N/A    N/A N/A N/A MISG      29.91S                  
SCOTTSDALE     MOSUNNY   94  43  17 MISG      29.92S                  
6HR MIN TEMP:  82; 6HR MAX TEMP:  95;                                

MESA-FALCON    MOSUNNY   96  45  17 S7        29.90S                  
6HR MIN TEMP:  82; 6HR MAX TEMP:  97;                                

MESA-GATEWAY   PTSUNNY   95  45  17 SW7       29.92S                  
CHANDLER       MOSUNNY   97  39  13 SW5       29.90S                  
$$


SKY/WX - Weather  TMP - Temperature  DP - Dew Point  RH - Relative Humidity
WIND - Wind Direction/Speed PRES - Barometric Pressure VSB - Visibility
WCI - Wind Chill Index E13G22 Wind - East Wind 13 mph/Gusts of 22 mph